Location: Mt. Bigelow
(32.4165°N, 110.7345°W)
Time: 23:18:29
(UTC-07:00)

N. Korean satellite - Visible Passes

Search period start: 18 February 2019 00:00
Search period end: 28 February 2019 00:00
Orbit: 457 x 510 km, 97.2° (Epoch: 18 February)

Date Brightness Start Highest point End Pass type
(mag) Time Alt. Az. Time Alt. Az. Time Alt. Az.
18 Feb 7.1 06:21:02 10° NNE 06:24:25 60° E 06:27:47 10° S visible
19 Feb 9.1 05:56:46 10° NE 05:59:38 25° E 06:02:28 10° SSE visible
20 Feb 10.2 05:33:43 10° ENE 05:34:46 11° E 05:35:49 10° ESE visible
21 Feb 10.0 18:45:32 10° SW 18:47:58 17° W 18:50:25 10° NW visible
22 Feb 7.6 06:15:31 10° NNE 06:18:51 49° E 06:22:09 10° S visible
23 Feb 9.4 05:51:24 10° NE 05:54:03 21° E 05:56:41 10° SSE visible
25 Feb 9.9 18:39:42 10° SW 18:42:23 20° W 18:45:04 10° NW visible
26 Feb 8.0 06:10:01 10° NNE 06:13:15 40° E 06:16:28 10° S visible
27 Feb 9.7 05:46:02 10° NE 05:48:25 18° E 05:50:48 10° SE visible
